Theta_e
274 274 273 273 272 272 272 273 274 275 276 276 276 276 277 277 277 277 277 278 278 279 280 281 282 284 285 287 289 291 292 294 296 296 296 297 297 297 297 297 297 297 297 297 298 300 301 300 298 297 299 301 303 304 305 307 308 310 314 316 319 323 324 323 323 322 322 322 323 324 325 326 325 325
273 273 273 273 272 272 272 272 273 274 275 275 275 276 276 276 277 277 277 278 278 279 280 281 282 283 284 285 288 291 292 293 295 296 296 296 297 297 297 297 297 297 297 297 298 300 301 301 299 298 298 300 301 302 302 303 304 306 310 313 315 318 322 323 323 323 323 322 322 323 324 325 325 324
273 273 273 273 272 272 271 271 273 274 274 274 274 275 275 276 276 277 277 278 279 279 280 281 282 282 283 284 286 289 291 291 292 295 296 296 297 297 297 297 297 296 296 296 298 300 301 301 300 298 298 299 300 301 302 302 302 303 307 311 312 314 318 321 322 322 322 322 322 324 325 325 324 324
272 273 273 273 272 271 271 271 272 273 273 273 274 274 275 276 276 277 277 278 278 279 280 280 281 282 283 284 286 288 290 290 292 294 296 297 296 297 296 296 296 296 296 296 297 299 300 301 301 299 297 299 299 301 303 303 303 304 306 308 309 312 316 317 319 320 320 320 322 324 325 325 324 323
272 272 272 272 271 270 270 271 272 272 272 273 273 274 275 275 276 276 277 277 277 278 279 280 281 281 283 285 287 289 291 292 293 295 297 297 296 296 296 296 296 296 296 296 296 297 299 301 301 299 298 298 299 301 304 304 304 305 306 307 308 311 314 315 317 319 320 320 320 322 324 325 323 322
272 272 271 271 270 270 270 270 271 271 272 272 273 273 274 275 275 275 276 277 277 278 279 280 281 281 282 285 289 291 292 293 293 295 296 296 297 296 296 296 296 295 295 296 296 297 298 300 301 300 299 298 298 301 303 304 304 305 305 306 308 312 314 314 316 318 319 320 320 321 323 324 323 322
272 271 270 270 270 270 270 270 270 271 271 272 272 273 273 274 275 275 276 277 277 278 279 280 280 281 282 286 290 292 292 293 293 294 295 296 297 296 296 295 295 295 295 295 296 296 298 300 301 300 300 299 298 300 302 302 303 304 305 305 307 311 313 313 315 317 319 320 320 321 322 323 322 321
271 270 270 270 270 269 269 270 270 270 271 271 272 273 273 274 275 275 276 277 278 278 279 279 280 281 282 286 290 292 292 293 294 295 295 296 297 296 296 295 295 295 295 295 295 296 297 299 301 301 300 300 298 299 301 301 302 304 305 305 306 309 311 312 314 316 318 319 320 321 322 322 320 319
271 270 270 269 269 269 269 270 270 270 271 271 272 273 274 274 275 275 276 277 278 278 278 279 280 281 283 287 291 292 292 293 294 295 296 296 296 296 295 295 295 294 294 294 295 295 296 297 300 301 301 300 299 298 299 300 303 304 305 305 305 307 309 310 312 314 316 317 319 320 321 321 319 319
270 270 269 269 269 269 269 270 270 271 271 272 273 273 274 274 275 276 276 277 277 278 278 279 281 282 285 289 292 292 292 293 294 295 295 295 295 295 295 294 294 294 294 294 294 295 295 296 297 300 301 300 299 299 298 299 302 304 304 304 305 306 308 309 310 312 314 315 317 318 320 320 319 318
270 269 269 269 269 269 270 270 271 272 272 273 273 274 275 275 276 276 276 277 277 278 279 280 282 285 288 290 292 292 292 293 295 294 294 294 294 294 294 294 294 293 293 294 294 294 295 295 295 297 300 300 300 299 299 298 300 302 303 303 304 305 308 309 310 311 313 313 314 316 318 319 318 317
270 269 269 269 269 270 270 271 272 272 273 274 274 275 275 275 275 275 276 276 277 278 279 280 283 287 291 291 291 292 292 293 294 294 294 294 293 294 294 294 294 294 294 294 294 294 294 294 294 296 298 300 300 299 299 298 299 300 301 302 303 304 306 309 310 311 312 312 312 314 316 317 317 316
269 269 269 269 269 270 271 271 272 273 273 274 275 274 274 274 275 275 275 276 277 277 278 280 282 287 291 291 291 292 292 293 294 294 294 294 293 294 294 294 294 294 294 294 294 294 294 294 294 295 298 299 299 299 299 299 299 299 299 300 301 303 305 307 309 311 311 311 311 312 315 316 316 315
269 269 268 269 269 270 270 271 272 273 274 274 274 273 274 274 274 275 275 276 276 277 278 279 281 285 287 289 290 291 292 293 294 294 294 293 293 293 293 293 294 294 294 294 294 295 295 294 295 296 298 299 299 299 299 299 299 298 298 299 300 301 303 304 307 309 310 311 311 311 313 315 315 314
268 268 268 268 268 269 269 270 271 272 273 273 272 272 273 273 273 274 274 275 276 276 277 278 280 282 284 286 288 289 290 292 293 293 293 293 292 293 293 294 294 294 294 295 295 295 295 294 295 296 297 299 299 299 299 299 298 298 298 298 298 299 300 302 305 308 309 310 310 310 311 314 314 313
268 268 268 268 268 269 269 270 271 272 272 271 271 272 272 272 272 273 274 274 275 275 276 277 279 281 282 285 287 288 288 290 292 293 292 292 292 293 294 295 294 294 294 295 294 294 295 295 294 295 296 297 298 298 298 298 298 298 298 299 298 298 298 299 302 305 308 310 310 308 309 312 314 313
267 267 267 267 268 269 269 270 272 272 271 269 270 270 271 271 271 271 272 272 273 274 275 276 278 280 281 284 285 285 286 288 290 292 292 292 293 293 293 294 294 294 294 295 294 294 294 295 295 295 295 296 297 298 298 298 298 297 298 298 298 298 298 298 299 302 306 308 308 307 306 309 313 314
267 266 266 267 267 268 269 270 272 272 270 269 269 270 270 270 270 270 270 270 271 273 274 275 278 279 280 282 283 283 285 287 289 291 292 292 292 293 293 294 295 294 294 294 294 294 293 294 295 296 295 296 296 297 298 298 298 297 297 298 298 297 298 298 298 300 304 305 306 306 305 306 310 313
266 265 266 267 268 269 269 271 273 272 270 268 269 269 269 269 269 268 268 269 270 272 273 274 276 277 278 280 281 282 284 286 288 291 292 292 292 293 293 293 294 293 293 294 295 294 293 293 294 295 295 296 297 297 297 298 298 297 297 297 297 297 297 298 298 298 301 302 303 305 305 304 307 311
265 265 266 267 268 269 270 271 272 272 269 268 268 269 268 269 268 267 267 268 270 271 272 273 275 276 276 278 279 281 283 285 288 290 291 291 292 292 293 293 292 292 292 293 295 294 292 292 293 293 294 295 296 297 297 298 298 298 297 296 297 296 297 298 297 297 298 299 301 304 305 304 305 307
264 264 266 267 268 269 270 271 272 271 269 267 268 268 268 268 268 266 266 268 269 270 271 272 272 273 275 277 279 281 282 283 285 286 286 287 290 292 293 293 292 292 292 293 295 294 292 292 292 293 293 294 295 296 297 298 298 298 298 297 296 296 296 297 297 297 297 297 299 302 304 304 304 303
264 264 265 266 268 270 270 270 271 271 269 267 267 268 268 268 267 266 265 266 268 270 272 273 273 273 276 278 279 280 281 282 282 281 280 283 288 292 293 293 292 292 292 293 294 294 292 292 292 293 293 293 294 294 295 296 298 298 298 297 296 296 296 296 296 297 297 297 297 299 300 302 302 300
263 264 265 266 268 270 270 269 270 270 269 267 267 267 267 267 267 265 264 265 266 267 269 271 271 273 275 277 278 279 281 281 281 279 278 279 283 288 291 292 292 293 292 292 293 293 292 292 293 293 294 295 295 294 294 295 296 298 298 297 296 296 296 296 296 296 297 296 296 297 297 299 299 299
263 264 264 265 267 269 269 269 269 269 268 267 266 267 267 267 266 264 263 264 265 265 265 266 267 270 273 275 277 279 280 280 281 280 279 278 279 282 287 290 292 292 291 291 292 292 292 292 293 294 295 296 295 294 294 295 295 297 298 297 296 296 297 296 296 296 296 296 296 296 297 297 298 299
262 263 264 264 266 268 268 267 268 268 268 267 266 266 266 267 266 264 262 263 264 264 264 265 265 268 271 273 275 276 276 277 279 280 280 280 280 281 283 287 290 291 290 290 292 292 292 292 293 293 294 294 294 293 294 294 294 295 297 297 296 296 297 297 297 296 296 296 296 296 296 297 298 299
262 263 264 264 266 267 266 266 266 266 266 266 265 266 265 265 264 263 262 263 263 263 264 264 264 265 266 268 270 271 273 274 276 279 281 282 283 283 284 285 288 289 290 290 291 292 292 292 292 293 293 293 294 294 293 293 293 294 296 296 297 296 296 297 298 298 296 296 296 296 296 296 297 298
261 262 264 264 265 266 265 264 264 265 265 265 265 264 264 263 263 262 261 262 262 263 263 263 264 264 264 264 266 267 269 271 273 277 279 282 284 286 287 287 288 289 290 291 291 292 292 292 292 292 292 293 294 294 294 293 293 294 294 295 296 296 296 296 297 298 298 297 296 296 296 296 296 297
261 263 264 264 264 264 264 263 262 262 263 263 263 263 262 261 261 261 261 261 262 262 262 263 263 263 263 263 264 265 267 269 272 276 279 282 284 286 287 288 288 289 290 291 291 291 292 292 292 292 292 293 293 294 294 293 292 293 294 294 295 296 296 296 296 297 298 299 298 297 296 296 295 296
261 262 263 262 262 262 262 261 260 260 261 261 261 261 260 260 260 260 260 260 261 261 261 262 262 262 262 263 264 265 267 269 271 274 278 281 284 286 287 288 288 289 289 289 290 291 291 291 292 292 292 292 292 292 293 292 292 293 294 293 293 294 296 296 295 295 296 297 299 299 298 296 296 296
261 261 261 261 261 261 260 259 259 259 259 259 259 259 259 259 259 260 260 259 260 260 261 261 261 261 262 263 264 266 268 269 269 270 272 275 278 281 283 285 286 287 288 288 289 289 290 291 291 292 292 292 292 292 292 292 292 292 293 294 293 293 294 295 295 295 295 295 297 298 299 298 297 296
262 261 260 259 259 259 259 258 258 258 258 258 258 258 258 258 258 259 259 259 259 260 260 260 260 261 261 262 263 265 266 267 267 268 268 270 272 275 278 280 282 283 286 287 288 288 289 290 291 291 291 292 292 292 292 292 292 291 292 293 294 294 293 294 295 295 295 295 296 297 298 298 298 298
262 261 260 260 260 260 260 259 259 258 258 258 257 257 257 257 258 258 258 258 258 259 259 260 260 260 261 261 262 263 264 265 266 267 267 268 270 273 276 278 278 278 281 284 286 287 288 289 289 290 291 291 291 292 292 292 292 291 291 292 293 294 294 294 294 295 295 296 296 296 296 297 297 298
261 260 260 260 259 258 258 257 257 257 257 257 257 257 257 257 257 258 258 257 258 258 258 259 259 259 260 260 261 262 263 263 264 265 266 267 269 271 273 275 275 276 277 279 281 284 287 288 289 290 290 291 291 291 292 292 292 292 292 292 292 292 293 294 294 294 295 295 295 295 296 296 296 297
259 258 257 257 256 255 255 255 255 255 255 256 256 256 257 257 257 257 257 257 257 257 258 258 258 259 259 260 260 261 262 262 263 264 265 266 267 269 270 272 273 274 275 275 276 278 282 286 288 289 290 291 291 291 292 292 292 292 292 292 292 292 292 293 293 293 294 295 295 294 294 295 296 296
257 256 255 255 255 255 255 255 255 255 255 255 255 255 256 256 256 256 257 257 257 257 257 257 258 258 258 259 259 260 261 262 262 262 263 264 266 267 268 270 271 272 273 274 274 275 278 281 284 288 290 291 291 291 292 292 292 292 291 291 292 292 292 292 292 292 293 294 294 294 293 293 294 296
255 255 255 254 254 254 254 254 255 255 254 254 255 255 255 256 256 256 256 256 256 257 257 257 257 257 257 258 258 259 260 261 261 261 262 263 264 265 267 268 269 270 270 272 273 274 276 277 279 283 287 290 291 291 291 291 292 292 291 291 291 291 292 292 292 292 292 292 293 293 293 293 293 294
255 255 255 254 254 254 254 254 254 255 254 254 255 255 255 255 256 256 256 256 256 256 256 256 257 257 257 257 258 258 259 260 260 260 261 262 263 264 265 266 267 268 269 270 271 272 274 275 276 277 280 285 289 291 291 290 291 292 292 292 292 291 291 292 291 290 291 291 292 292 293 293 293 294
255 255 255 254 255 255 254 255 255 255 255 255 255 255 255 255 256 256 256 256 256 256 256 256 256 256 256 257 257 258 258 259 259 259 260 261 262 263 264 265 266 266 267 268 270 271 272 273 273 274 275 277 281 285 285 285 287 290 291 291 292 292 291 291 291 290 290 291 291 292 292 292 293 293
255 255 255 255 255 255 255 255 255 255 255 255 255 255 255 255 256 256 256 256 256 256 256 256 256 256 256 256 257 257 258 258 258 258 259 259 261 262 263 264 264 265 266 267 268 269 270 271 271 272 272 273 275 277 278 279 282 287 290 291 291 291 291 291 291 290 290 290 291 291 291 292 292 292
256 256 255 255 255 255 255 255 255 255 255 255 255 255 255 255 255 256 256 256 256 256 256 256 256 256 256 256 256 257 257 258 257 257 258 259 259 261 262 263 263 264 265 266 267 267 268 269 269 269 271 272 274 275 275 276 280 285 289 291 291 291 292 292 292 291 290 290 291 291 291 291 291 291
256 256 256 256 256 255 256 256 256 256 256 256 256 256 256 256 256 256 256 256 255 255 256 256 256 256 256 256 256 256 257 257 257 257 257 258 259 260 261 261 262 262 263 264 265 266 266 267 268 270 271 273 276 278 279 281 284 287 290 291 291 291 292 292 292 292 291 291 291 291 290 290 291 290
257 257 256 256 256 256 256 256 256 256 256 257 257 257 257 257 256 256 256 256 256 256 255 255 255 256 256 256 256 256 256 257 256 256 257 257 258 259 259 260 261 261 262 263 264 264 265 266 269 271 273 274 276 279 283 286 288 289 290 290 291 291 291 291 291 292 292 292 292 291 290 290 290 290
257 257 257 257 257 257 257 257 257 257 257 257 257 257 257 257 257 256 256 256 256 256 256 255 255 255 255 256 256 256 256 256 256 256 256 257 257 258 259 259 260 260 261 262 262 263 264 266 268 270 272 273 275 277 280 283 286 288 289 290 290 291 291 291 291 291 291 292 292 292 292 292 292 292
258 258 258 258 258 258 258 257 257 257 257 258 258 257 257 257 257 256 256 256 256 255 255 256 256 256 255 256 256 256 256 256 256 256 256 256 257 257 258 259 259 260 260 261 262 262 263 265 267 269 270 272 273 275 277 280 283 286 288 289 290 290 290 291 291 291 291 291 291 292 292 292 292 293
259 259 259 259 259 259 259 258 258 258 258 258 258 258 257 257 257 256 256 256 256 255 256 256 256 256 256 255 256 256 256 256 256 257 256 256 257 257 258 258 259 259 260 260 261 261 262 264 266 267 269 271 273 275 276 278 281 284 286 287 288 289 289 290 290 290 291 291 291 291 292 292 292 292
Wind_Speed
23 23 23 22 21 22 22 23 23 22 22 21 21 21 17 13 10 9 11 10 10 18 24 25 26 25 24 27 28 28 29 28 27 28 28 29 29 28 28 28 29 28 28 28 29 30 30 31 32 31 31 33 34 33 32 29 30 31 24 14 20 36 41 41 45 46 45 45 45 45 48 48 48 47
25 24 23 22 22 22 23 25 24 21 20 20 20 20 20 18 13 9 11 11 9 15 23 26 27 27 27 28 29 29 29 28 27 27 27 28 27 26 26 27 28 27 27 28 29 29 29 29 30 31 30 31 34 34 34 32 31 33 32 23 16 24 36 39 40 43 44 47 48 48 50 51 51 50
26 23 23 23 20 21 25 25 24 21 20 20 21 21 21 22 21 15 11 10 12 16 22 27 30 31 32 33 32 32 33 31 30 27 26 25 24 24 24 26 27 27 26 28 29 28 29 29 28 30 30 30 30 31 31 31 31 32 34 31 23 18 26 33 37 41 45 46 47 48 52 53 52 52
24 22 23 20 17 21 25 22 20 20 20 20 20 21 21 21 23 21 13 9 14 21 25 30 34 34 32 34 34 33 35 34 30 27 24 22 22 22 24 25 26 26 26 27 28 29 29 29 28 29 30 29 28 28 27 27 27 29 33 34 29 20 19 25 31 38 43 45 45 47 51 54 53 53
22 22 23 19 17 22 22 19 19 19 19 20 20 20 21 21 22 23 17 11 12 20 26 29 33 33 29 31 34 32 32 31 28 25 22 19 19 21 23 24 24 25 25 26 27 28 29 30 30 29 29 28 27 25 24 26 25 25 30 33 30 25 20 20 25 33 40 44 45 46 48 53 55 53
21 23 24 20 19 20 20 19 20 19 19 20 21 21 21 22 23 24 21 16 11 15 24 27 29 31 28 29 32 30 27 27 26 25 23 20 19 20 22 23 23 23 24 25 25 28 29 30 31 30 29 27 27 25 23 26 25 24 28 31 30 28 24 21 22 29 37 42 44 46 47 51 55 53
21 24 22 20 20 20 20 20 20 20 20 20 21 23 23 23 25 26 25 20 12 12 20 24 26 28 27 28 30 28 26 26 25 25 26 23 21 21 21 22 23 22 23 24 24 27 29 30 31 30 30 28 27 25 23 25 26 25 27 29 31 31 28 23 21 25 33 38 42 45 47 50 52 51
23 24 21 19 21 21 21 22 21 21 22 22 22 23 24 24 26 27 26 23 18 16 17 21 25 28 28 29 29 26 23 24 24 24 25 23 22 21 20 21 22 21 21 22 23 26 29 30 31 30 30 29 28 27 24 24 25 25 26 28 32 34 31 26 22 22 27 34 41 45 48 49 49 50
23 24 21 21 23 23 22 22 22 24 27 27 24 22 24 26 27 26 24 22 22 21 18 20 26 28 28 29 28 24 22 22 22 22 22 21 20 19 18 19 20 20 20 20 21 23 28 30 31 30 30 29 29 28 26 25 24 24 24 27 31 33 33 29 25 21 22 28 37 44 49 51 49 48
22 23 23 24 25 25 24 25 27 30 32 28 25 25 27 26 25 23 23 22 23 24 23 22 24 26 27 25 22 21 21 20 18 17 17 18 18 17 17 18 19 19 19 19 18 19 24 29 31 30 30 29 29 28 27 26 25 25 24 25 27 30 31 30 28 25 23 24 31 40 47 52 51 48
21 23 24 25 26 27 26 28 30 30 28 26 26 27 24 22 22 22 22 22 21 23 23 20 19 23 23 19 16 19 20 19 19 16 12 11 14 16 17 18 18 18 18 17 16 16 18 24 30 30 30 29 29 28 27 26 26 26 25 25 25 26 27 28 27 27 26 23 26 35 44 49 50 48
20 22 24 25 27 27 27 28 29 27 27 27 25 22 21 21 22 21 21 20 20 21 20 17 18 17 14 12 14 16 15 12 12 15 12 8 11 15 16 17 17 16 17 17 15 15 16 20 26 29 29 30 29 28 27 26 26 26 25 25 25 24 24 26 27 27 28 23 23 31 42 47 48 47
20 20 24 26 27 27 28 29 29 30 31 28 24 23 23 22 20 20 20 18 18 18 15 13 14 10 5 6 8 9 10 8 7 11 13 10 10 13 13 14 16 15 16 16 15 15 17 20 23 25 27 29 29 28 27 26 26 26 25 25 25 24 24 26 27 28 29 26 22 27 40 47 48 47
20 20 23 26 27 28 30 30 30 32 31 27 26 25 23 21 20 20 19 17 17 15 11 10 11 7 4 6 7 5 8 12 12 11 12 9 8 9 8 8 12 15 16 16 15 14 16 20 22 24 26 28 29 29 28 27 27 26 24 23 23 24 25 25 27 29 30 28 22 22 33 47 49 47
21 21 23 26 27 30 31 30 32 32 27 25 27 25 22 22 22 21 19 18 17 15 12 11 11 7 6 9 11 10 6 8 12 14 13 10 7 5 4 3 6 12 17 16 14 13 14 18 21 23 25 26 27 29 29 28 27 26 24 21 20 22 23 24 27 30 30 30 25 19 24 40 48 47
20 21 24 26 28 31 31 32 33 28 23 26 25 22 22 23 23 23 20 18 19 18 15 13 11 10 10 11 13 13 11 7 8 13 14 13 10 6 5 3 3 10 17 17 12 11 12 16 18 21 23 24 25 27 28 29 28 26 25 24 21 20 21 22 24 27 29 32 29 20 17 29 42 46
20 21 25 26 28 33 33 32 31 24 24 28 24 21 24 25 24 25 21 18 20 19 18 15 14 16 17 14 16 17 13 9 6 11 12 13 13 9 7 6 6 11 18 17 11 8 11 15 16 18 20 21 22 24 26 28 28 27 26 25 23 20 20 21 21 22 25 31 32 24 16 18 32 43
20 22 25 25 30 35 34 31 29 25 26 28 25 22 25 25 25 24 22 22 23 21 20 18 16 20 22 18 18 20 14 8 4 7 10 12 14 12 8 8 10 13 18 17 10 5 8 13 14 15 17 17 18 21 23 25 26 27 27 25 23 20 19 19 21 22 23 26 30 28 21 16 20 32
20 23 24 26 32 35 31 29 31 27 24 24 24 23 24 24 24 23 23 25 26 24 24 21 18 21 22 19 21 23 19 11 3 5 8 11 14 13 9 6 9 14 16 15 9 4 6 12 13 12 14 15 15 17 19 21 23 26 28 26 22 20 18 16 19 22 24 25 28 29 26 20 16 20
21 23 24 27 34 33 28 29 33 29 23 22 23 23 24 25 24 25 28 28 25 25 26 22 19 21 21 20 24 29 28 20 10 6 5 4 7 10 7 3 5 10 13 13 9 4 6 11 11 9 11 14 15 15 17 18 20 23 27 27 24 21 20 17 16 19 21 23 27 29 28 26 22 17
21 23 24 28 34 32 29 31 33 30 26 23 24 24 25 26 26 29 35 35 30 29 28 24 22 25 27 28 32 36 36 30 23 18 12 10 5 3 4 2 2 6 8 9 8 6 7 10 11 9 9 10 12 14 16 17 18 20 23 26 25 22 21 20 19 18 18 20 24 29 28 29 28 21
22 23 24 28 32 31 31 32 32 32 28 25 25 26 25 26 27 30 37 38 36 35 34 31 31 33 34 35 37 39 38 36 35 28 18 16 12 3 2 1 2 4 5 6 5 5 8 12 13 10 8 6 6 10 13 16 17 18 20 23 24 22 20 20 21 20 20 18 19 24 26 27 28 24
24 25 24 28 31 31 32 31 31 32 30 26 27 26 24 24 25 28 32 32 33 34 36 37 38 38 39 39 38 38 36 37 38 34 28 25 19 8 4 3 2 2 2 3 3 4 7 12 14 10 6 3 3 5 9 13 16 17 19 21 22 22 20 19 20 21 21 19 17 18 20 23 24 22
25 28 25 27 31 31 31 31 31 32 31 28 28 27 26 25 25 27 30 29 27 28 32 37 40 41 42 41 39 38 38 36 37 36 33 30 24 15 11 8 4 3 5 3 4 4 6 10 11 9 5 2 3 5 6 10 15 16 18 21 22 21 20 19 20 20 20 19 17 16 17 20 22 22
24 28 25 27 30 30 30 31 30 31 31 30 30 29 28 27 26 27 30 31 28 27 30 38 44 45 44 44 42 41 40 38 36 35 33 31 26 20 15 11 6 6 10 8 6 5 5 7 7 5 4 3 4 6 6 7 11 14 16 19 21 22 22 21 20 21 20 19 18 16 17 20 22 24
23 26 25 26 28 27 28 29 29 30 31 30 31 31 29 28 28 29 30 32 31 29 30 37 46 49 47 47 46 44 42 39 36 34 32 30 27 21 16 13 9 7 11 12 9 7 6 5 5 4 3 3 4 6 6 5 6 11 13 16 19 22 23 22 21 21 22 22 20 19 19 20 22 25
22 25 24 24 25 25 26 27 28 29 30 30 31 33 31 29 29 31 33 32 30 30 30 33 39 43 42 43 45 44 41 38 35 33 31 29 27 22 20 20 17 12 11 11 11 11 9 6 4 4 4 3 4 4 3 3 5 10 11 11 15 19 22 23 23 22 22 23 23 22 21 20 22 24
20 22 22 21 23 23 23 25 27 29 30 30 31 32 32 30 31 33 34 31 28 28 30 29 29 32 34 37 40 40 36 34 34 31 28 27 25 20 19 22 24 21 17 14 12 11 12 10 6 4 4 5 4 3 2 3 6 11 13 11 11 15 19 22 23 23 22 22 24 24 24 24 23 22
18 18 19 20 21 23 24 27 31 32 31 29 29 31 33 33 33 33 32 30 28 27 27 24 23 27 32 35 36 36 34 34 36 34 30 27 24 20 18 20 23 25 24 22 17 12 10 11 9 6 4 5 5 5 5 5 5 10 13 12 11 12 15 19 21 23 23 23 24 26 27 27 26 25
20 19 21 23 25 26 26 28 30 29 29 30 32 34 36 36 33 32 31 31 29 27 25 24 23 27 34 38 38 38 37 38 39 38 35 31 28 25 22 21 23 24 25 25 24 18 12 9 9 8 6 4 5 7 7 6 6 8 11 12 12 11 12 16 18 21 23 23 23 25 26 27 28 28
24 23 23 24 26 27 27 27 29 31 33 36 37 37 37 36 33 31 30 30 29 28 27 26 26 28 34 40 42 42 40 39 37 36 35 33 29 27 25 22 23 26 25 24 24 22 18 12 8 7 7 5 4 5 4 4 6 8 10 12 12 9 10 16 18 18 21 23 22 23 24 24 26 28
24 25 26 29 32 34 35 35 37 38 38 38 37 36 36 36 34 32 32 33 33 31 29 29 30 31 34 38 42 43 41 38 34 33 35 34 30 27 24 18 17 23 26 27 27 23 20 16 10 6 5 5 4 3 4 4 5 7 9 11 11 8 10 16 18 17 18 21 21 21 22 22 23 26
26 28 31 35 36 37 37 37 37 38 38 37 38 37 36 37 37 36 36 36 35 33 31 31 31 32 31 34 39 41 40 38 35 32 33 35 33 30 24 17 14 17 20 24 28 28 23 18 14 7 3 4 4 3 3 3 3 5 7 10 11 9 8 12 16 18 18 20 20 20 19 21 22 23
28 30 31 32 32 32 31 31 31 33 33 34 35 36 36 37 37 36 35 35 33 31 31 30 30 31 30 30 33 36 35 36 37 34 32 33 34 29 21 15 15 18 16 18 25 31 29 23 19 12 5 3 4 3 2 3 3 5 6 8 9 9 8 9 13 18 19 19 19 19 17 18 20 21
28 29 28 27 28 28 27 27 27 28 29 30 31 32 34 35 35 34 34 34 33 31 31 31 30 31 31 29 29 30 28 29 32 34 34 35 33 25 18 14 15 18 18 18 23 29 30 27 22 14 6 3 4 2 1 1 3 5 6 7 8 9 8 7 10 15 18 18 18 17 15 15 18 20
26 26 24 24 25 26 25 26 26 26 27 28 28 29 30 31 33 32 31 30 31 30 30 30 30 30 32 32 29 28 27 26 28 30 32 32 28 22 18 16 16 17 18 18 21 25 25 24 22 14 5 2 3 2 1 0 3 5 5 6 8 9 9 8 8 12 15 16 18 17 14 13 16 20
24 23 23 23 23 24 24 24 25 26 26 26 26 26 26 27 29 29 28 29 31 31 30 30 29 30 31 32 30 29 28 26 25 26 27 28 26 23 19 18 18 18 19 19 20 21 20 20 20 15 6 3 3 2 2 4 2 4 6 6 8 9 10 9 9 11 12 13 15 16 14 13 15 19
22 22 22 22 22 23 23 24 25 26 26 27 26 26 26 27 27 27 29 30 31 31 31 31 31 30 31 31 29 29 28 27 26 26 25 26 25 23 19 18 18 19 19 18 19 20 18 17 18 15 9 5 3 3 5 7 6 4 4 7 8 9 11 12 11 11 12 12 12 13 12 11 12 15
21 20 20 20 21 21 22 23 24 25 25 26 27 26 27 28 28 28 29 30 30 30 31 31 30 30 31 31 29 27 27 27 26 25 25 25 23 21 19 18 18 19 19 17 18 20 19 17 17 17 13 7 7 8 8 8 11 11 8 6 10 10 11 13 13 11 12 12 12 10 9 8 7 8
19 18 18 18 19 20 20 21 22 23 24 25 26 26 26 27 28 27 27 29 29 29 29 30 30 30 31 31 31 28 27 27 26 25 24 23 21 19 18 18 17 18 17 15 16 19 19 19 21 21 19 17 17 17 15 14 16 15 10 6 10 10 9 12 14 13 12 13 14 12 11 9 7 8
18 17 17 17 17 18 19 20 21 22 23 23 25 25 26 27 27 26 26 27 28 28 29 30 30 30 30 30 30 29 27 27 27 27 26 25 22 20 19 18 17 17 15 13 15 18 21 24 26 24 21 20 17 12 9 7 7 7 5 4 9 11 8 8 11 12 12 15 17 15 11 9 9 9
16 16 16 16 16 16 17 18 19 20 21 22 24 25 26 26 26 26 28 29 29 29 30 30 30 30 30 29 29 28 26 26 27 27 27 27 25 24 23 21 18 17 15 12 15 21 25 28 29 26 22 21 16 8 3 3 3 3 3 2 5 9 8 6 7 9 9 12 15 14 10 8 7 5
14 14 14 14 14 15 16 17 18 19 20 21 22 23 25 26 27 28 29 30 30 30 30 30 30 30 30 29 29 28 26 25 27 27 26 26 25 24 24 23 21 20 18 16 19 25 28 30 31 28 24 21 16 9 5 6 8 6 4 2 2 5 7 8 8 8 7 8 11 12 11 9 6 3
12 12 13 13 13 14 14 15 16 17 18 20 21 22 23 25 26 27 27 28 29 29 29 29 30 30 29 29 29 29 27 26 26 26 25 25 24 23 23 24 24 23 22 22 24 27 30 32 32 28 23 20 17 12 9 9 10 10 8 4 0 2 4 7 8 9 8 8 9 10 10 9 5 3
11 11 11 12 12 13 13 14 15 16 17 19 20 21 22 23 24 25 26 27 28 28 28 29 29 29 29 28 28 28 27 27 27 27 25 25 24 23 23 23 24 24 24 24 24 26 30 33 32 28 24 21 18 14 13 11 10 10 11 8 5 3 0 3 5 7 9 9 9 9 9 9 7 4
Wind_Direction
311 310 308 306 304 308 307 298 292 288 286 287 289 286 284 288 296 298 295 292 294 294 291 291 292 292 292 289 288 288 289 291 283 271 263 259 258 257 254 252 250 246 244 243 240 236 235 239 240 237 234 232 232 236 238 238 237 232 234 241 219 209 205 200 196 197 200 200 200 201 202 203 202 200
317 312 308 304 299 305 310 303 295 293 294 294 294 294 295 295 291 288 292 286 282 291 288 284 286 291 294 290 288 287 287 293 291 277 265 260 258 257 256 253 250 247 243 240 237 234 233 235 237 236 235 234 234 236 238 240 239 233 230 238 239 213 203 200 197 196 197 199 202 203 203 203 203 201
317 312 311 304 298 306 311 304 297 295 299 299 299 298 294 289 284 281 284 284 280 285 287 286 287 289 290 289 286 284 283 287 289 281 268 261 259 258 256 254 251 248 243 239 235 232 231 232 234 234 234 236 236 235 237 239 238 234 227 229 239 228 206 202 200 200 199 199 202 204 201 201 201 199
315 316 317 309 307 313 311 303 297 297 299 298 295 293 289 285 285 285 284 286 288 286 285 286 287 287 289 288 282 278 278 281 284 280 270 261 258 256 254 252 250 247 243 239 234 230 230 230 232 232 232 236 239 235 233 234 235 231 225 226 233 233 220 211 205 204 206 204 206 207 203 201 200 198
318 323 322 317 317 318 313 307 306 304 303 301 296 293 292 289 289 288 284 283 289 289 285 282 284 286 289 287 280 273 272 276 280 277 270 263 257 253 252 251 249 246 243 238 232 229 229 230 231 232 231 233 237 235 230 228 229 227 224 225 228 229 228 225 215 212 212 209 209 209 207 204 202 199
324 328 325 320 319 319 316 313 311 308 305 303 299 294 293 292 289 286 284 282 284 288 285 282 285 288 286 282 277 268 265 272 276 272 267 267 263 256 252 250 249 246 242 237 232 228 228 229 231 232 231 232 234 232 228 225 224 223 224 224 223 223 226 229 225 218 214 212 210 209 209 207 202 197
330 332 328 323 320 317 315 311 308 306 303 302 300 295 292 289 287 285 282 278 278 283 284 284 287 289 287 281 273 265 264 273 274 267 263 265 264 259 252 248 248 247 242 237 231 228 227 228 230 231 232 232 232 229 228 226 223 222 225 225 220 218 219 222 227 221 213 212 212 210 209 206 199 193
334 332 327 323 320 316 313 309 306 302 300 299 296 293 291 289 287 285 281 278 280 282 284 287 287 286 284 281 272 265 270 277 273 264 259 257 257 255 250 246 247 247 244 239 233 228 226 226 228 230 231 231 230 228 227 225 222 222 225 226 222 217 214 214 220 221 214 211 211 210 208 204 197 191
334 331 323 320 319 317 313 307 304 303 302 299 293 291 292 288 284 283 284 285 284 280 279 284 283 279 277 274 267 264 269 273 268 260 253 250 250 250 247 244 244 244 242 240 236 231 228 226 227 229 229 230 229 228 227 223 219 220 221 223 223 219 215 215 217 219 220 214 211 209 206 202 197 192
333 329 323 320 320 319 314 308 308 308 306 302 296 291 288 284 285 290 292 291 287 281 279 279 277 273 268 264 261 262 265 263 254 244 240 242 243 242 241 239 238 239 239 238 237 235 231 227 226 228 228 228 228 227 226 223 219 219 218 219 219 215 214 217 219 222 226 223 216 211 205 201 196 192
331 327 323 323 323 321 316 313 312 310 306 300 295 292 291 294 300 300 296 294 290 286 284 279 272 264 255 249 256 267 266 256 243 230 221 230 234 233 234 234 232 231 233 236 237 235 233 227 224 225 226 227 227 225 224 223 220 220 219 218 217 211 207 209 215 221 226 230 228 218 207 200 194 192
332 327 325 326 325 324 321 318 316 313 309 304 303 307 312 311 307 302 299 298 296 294 292 288 280 265 240 237 259 267 260 249 237 225 213 217 225 223 227 231 228 225 225 229 231 228 227 225 223 223 224 224 224 223 222 222 221 221 221 219 218 212 204 201 205 214 222 230 237 224 208 200 195 194
333 327 326 327 327 327 325 323 321 318 316 318 324 327 321 314 309 306 305 303 302 300 296 293 294 287 255 254 265 257 238 229 230 220 212 217 224 216 217 224 223 222 221 220 222 221 218 218 219 220 221 222 222 222 221 219 219 221 220 218 216 212 208 205 203 210 220 226 235 228 209 200 197 196
334 329 325 324 325 327 326 324 323 320 321 329 333 328 320 318 318 314 310 309 309 306 300 299 306 318 333 313 311 305 250 230 221 209 201 206 209 199 200 217 218 215 213 211 211 215 215 214 214 215 218 219 219 219 219 218 218 219 217 214 213 209 208 206 203 207 218 222 231 233 212 200 198 197
334 331 327 324 326 329 326 322 321 319 326 339 336 328 327 328 325 321 318 317 317 312 307 307 309 315 322 318 322 333 317 247 219 205 197 192 184 177 188 209 214 210 206 200 196 200 208 211 212 213 216 217 216 217 218 219 219 219 216 214 214 208 204 205 204 205 212 218 226 235 216 201 198 197
335 333 330 324 327 332 327 321 320 323 339 347 338 331 333 332 332 332 329 325 324 320 316 311 311 317 317 319 329 339 341 312 238 208 198 191 186 188 196 193 192 199 197 190 179 183 196 203 209 214 217 216 217 219 220 220 220 218 215 216 217 211 202 203 206 205 207 215 221 227 222 205 197 196
338 336 331 324 327 334 331 325 326 337 354 352 341 337 339 337 338 338 334 334 332 325 317 310 310 326 334 338 345 348 346 327 260 210 198 195 194 196 198 199 189 183 185 181 165 166 187 193 201 213 217 216 217 219 220 220 220 217 212 212 214 213 206 205 207 202 202 212 216 215 221 212 199 195
339 337 332 323 326 334 334 332 338 351 1 353 344 343 343 339 339 337 337 345 346 337 328 321 323 337 344 349 355 0 4 350 287 211 197 196 196 194 191 195 187 177 179 177 160 152 187 189 194 206 212 213 215 219 219 219 218 214 210 209 209 210 210 208 205 198 195 203 209 210 217 222 208 199
340 339 334 328 331 335 337 340 348 359 3 354 347 347 344 340 339 338 342 349 349 343 338 336 340 345 348 356 8 18 27 28 10 204 200 196 188 179 166 165 170 170 177 179 166 147 180 183 186 199 206 207 209 215 217 216 215 211 208 208 206 206 209 209 204 199 198 199 202 208 217 222 221 214
342 343 340 336 337 340 343 348 354 2 6 358 353 351 347 345 343 345 354 0 358 354 352 349 350 354 2 15 25 33 40 44 57 97 106 128 163 163 146 121 152 163 173 182 176 152 162 175 177 181 193 201 204 207 210 211 211 208 206 207 207 205 207 208 204 200 202 204 201 203 213 219 222 231
342 344 344 342 343 347 352 354 357 4 9 3 359 357 352 350 349 351 359 6 7 7 9 9 9 13 22 33 39 42 44 46 53 64 51 17 10 153 150 91 123 154 166 176 172 155 160 170 166 156 167 189 200 205 206 206 206 205 204 205 207 205 203 206 208 203 200 205 202 197 201 210 217 231
345 347 349 348 350 353 356 358 1 7 11 8 4 2 357 356 357 355 357 1 5 9 16 20 22 25 31 38 41 41 42 43 45 46 31 9 11 48 136 89 103 127 137 150 149 142 158 165 157 143 136 152 184 200 204 202 200 200 201 202 205 206 202 202 208 207 201 202 201 195 195 203 212 226
351 354 353 351 354 358 360 2 5 10 13 12 9 5 2 3 2 355 353 356 358 2 10 16 18 23 28 33 34 36 39 40 38 36 30 24 23 19 9 41 92 101 95 128 124 118 150 160 157 151 139 113 148 180 193 199 197 194 194 197 201 205 205 202 204 208 207 204 199 195 198 205 213 220
352 358 354 351 356 0 2 5 9 13 15 16 12 9 9 9 4 357 358 0 358 358 5 12 15 19 25 27 29 31 33 33 31 30 28 26 21 13 10 22 51 61 47 64 93 99 137 154 155 160 164 134 139 153 162 183 192 193 191 191 194 200 204 206 205 206 210 210 205 199 203 211 218 217
353 356 352 350 356 2 4 7 11 14 17 18 16 13 12 11 7 4 5 6 5 4 8 14 19 21 22 22 23 24 23 23 24 24 23 23 22 18 11 7 18 45 42 45 66 81 108 136 140 140 133 102 117 140 135 147 176 189 191 190 191 193 198 203 205 205 208 211 211 210 209 215 220 218
353 356 351 350 355 2 6 9 13 16 18 19 17 14 14 13 11 12 12 11 11 10 10 16 20 19 17 16 16 15 15 15 17 19 20 20 23 27 24 18 20 32 35 40 54 62 74 110 117 99 97 89 110 134 129 112 148 174 184 188 190 191 193 197 199 200 202 205 209 213 215 218 221 219
353 356 353 351 356 3 9 11 14 18 19 19 17 15 15 14 14 17 18 17 14 13 14 18 18 15 13 11 9 7 6 7 10 16 18 20 23 29 36 38 40 44 41 41 49 53 59 83 97 79 90 115 120 129 124 98 134 153 161 174 185 188 191 196 197 197 199 201 204 208 211 216 221 220
355 355 353 353 358 5 12 14 18 22 21 19 18 17 16 16 17 19 19 17 16 17 19 18 14 9 8 7 4 2 2 4 10 16 20 23 25 30 38 43 45 47 44 38 41 48 52 60 66 66 90 106 106 115 114 101 135 148 144 145 164 178 185 192 196 197 198 199 199 202 205 208 212 215
359 355 354 0 8 12 16 19 23 26 22 18 19 20 20 22 22 20 18 16 18 19 17 13 7 4 7 9 7 6 9 14 18 20 21 25 30 33 37 42 45 46 44 38 35 36 41 48 52 55 78 88 79 97 115 104 126 154 153 141 140 159 175 184 189 192 194 196 196 197 200 202 204 205
12 13 10 14 20 22 22 23 24 24 21 20 22 23 24 25 23 20 18 18 18 17 12 7 4 4 8 12 14 16 20 22 20 18 17 18 20 23 25 29 34 38 39 38 34 30 27 34 43 47 60 77 78 94 114 110 115 151 164 153 140 144 164 175 181 185 187 191 195 197 199 201 203 204
19 22 19 21 25 25 26 25 24 24 23 23 24 23 23 24 23 21 21 21 21 18 13 9 7 7 11 15 17 19 22 20 16 15 16 14 12 12 17 23 22 21 25 31 33 31 27 25 27 39 51 61 73 90 105 109 119 140 159 164 158 152 160 167 172 177 181 183 188 193 196 198 200 202
19 23 22 24 26 25 25 23 22 22 22 21 21 20 20 21 22 22 22 23 22 18 15 13 12 12 14 16 16 18 20 18 13 13 17 17 14 15 23 28 16 7 11 17 22 25 28 26 20 20 40 47 53 83 95 100 126 141 151 164 169 164 162 166 167 170 175 177 178 185 193 196 197 201
23 25 25 25 23 21 21 19 18 17 16 15 17 18 18 18 19 20 21 20 18 15 14 14 13 12 12 13 14 16 17 16 14 14 15 17 18 20 23 25 14 4 3 4 8 13 19 22 18 11 17 41 43 62 84 92 134 158 158 164 168 164 165 175 175 172 172 171 170 174 186 195 198 200
28 27 26 24 20 18 17 16 14 12 11 11 11 13 15 17 17 18 18 17 14 14 16 16 14 13 12 11 13 14 13 12 14 15 15 18 20 19 16 12 9 6 358 352 0 7 11 13 12 7 6 37 49 57 74 96 150 174 175 177 177 170 167 180 187 184 181 178 171 167 173 188 197 201
31 28 25 21 17 16 16 14 11 9 10 10 8 9 12 15 15 15 14 13 13 14 16 17 16 15 13 11 12 14 12 10 12 14 16 18 18 13 9 8 6 2 357 353 357 3 6 6 2 356 357 35 48 50 36 52 175 177 174 183 190 187 179 181 190 190 188 187 182 173 168 178 190 197
33 28 25 19 15 14 13 11 10 9 9 10 9 9 9 10 12 13 11 10 13 16 16 16 16 15 14 13 13 13 14 14 14 14 15 15 12 5 5 9 5 359 357 354 353 356 1 4 3 359 355 24 33 57 61 340 203 195 188 186 190 193 191 186 188 190 190 190 188 185 180 181 187 192
31 26 24 19 15 13 11 8 8 9 9 9 10 10 9 7 9 11 11 12 16 18 17 18 17 15 14 14 13 13 15 16 17 16 15 14 11 8 4 2 360 357 354 352 354 358 0 6 11 11 3 350 359 13 12 355 295 225 215 207 197 193 191 184 177 185 192 192 191 191 189 188 191 197
28 23 20 17 14 12 11 9 8 8 9 9 9 9 9 8 9 12 13 14 16 16 16 18 17 16 16 16 14 13 13 14 17 17 15 14 13 9 2 356 354 352 348 346 353 0 3 9 14 13 11 13 6 356 2 357 339 301 245 226 217 201 189 181 173 177 187 190 191 194 196 195 198 204
27 22 18 15 13 12 11 10 9 8 8 9 9 8 7 8 10 12 12 14 14 15 16 16 15 15 16 16 15 14 14 15 15 14 12 12 11 6 1 357 354 349 346 346 351 357 3 7 5 359 352 335 303 296 301 299 299 310 308 250 227 213 194 187 183 176 176 179 177 175 179 185 190 195
23 22 19 14 13 12 11 10 10 10 9 10 10 10 8 9 11 11 11 11 12 14 15 15 14 15 16 15 15 15 15 15 14 12 10 10 9 5 1 359 354 350 348 347 349 351 353 352 348 340 330 318 309 302 294 283 284 301 311 257 223 221 212 202 195 181 171 174 170 157 150 155 152 156
17 18 18 15 13 12 12 11 10 10 10 10 11 11 12 13 13 11 10 11 13 13 13 13 13 13 14 14 14 14 13 12 11 11 9 8 6 5 4 2 359 356 354 349 344 343 342 343 345 344 341 340 337 322 298 278 274 290 306 253 219 217 217 217 209 197 185 178 168 151 136 140 142 142
14 14 14 14 13 13 11 11 10 9 9 10 10 10 11 13 14 13 12 13 13 13 12 12 12 11 11 12 13 14 13 11 8 8 8 7 5 4 5 6 2 356 350 338 330 333 339 346 355 0 2 0 358 345 303 304 306 290 300 290 228 216 210 209 212 213 208 191 175 159 142 135 131 128
13 12 12 12 12 12 12 11 10 9 8 9 10 9 9 11 12 13 12 11 11 10 9 9 9 10 10 9 10 12 13 9 6 6 7 7 6 2 1 1 359 355 348 335 330 338 347 357 4 6 4 2 359 349 327 331 337 331 321 311 242 222 218 210 204 208 213 204 195 192 185 167 142 138
10 9 10 10 9 11 11 10 9 9 7 7 8 9 8 9 10 11 11 10 8 7 7 6 6 7 8 7 8 10 10 7 5 5 5 5 6 5 1 358 357 356 354 347 343 347 353 0 6 8 2 356 353 346 326 322 334 340 337 335 21 192 219 220 213 211 210 202 201 205 202 190 165 131
6 7 8 8 7 8 10 8 7 8 7 5 5 6 7 7 7 8 9 9 7 5 4 4 4 5 5 5 5 6 5 3 4 5 5 4 5 5 4 1 358 358 357 354 350 347 349 356 4 6 1 355 354 349 335 323 323 331 339 350 13 33 284 227 221 222 222 217 214 211 208 205 202 183